Location: ??????
(55.0357°N, 38.6195°E)
Time: 05:43:36
(UTC+00:00)

CZ-2C R/B - Visible Passes

Search period start: 16 July 2024 00:00
Search period end: 26 July 2024 00:00
Orbit: 784 x 868 km, 98.3° (Epoch: 15 July)

Date Brightness Start Highest point End Pass type
(mag) Time Alt. Az. Time Alt. Az. Time Alt. Az.
16 Jul 5.2 20:46:25 10° ENE 20:49:15 14° NE 20:52:06 10° NNE visible
16 Jul 3.6 22:22:58 10° SE 22:28:21 50° ENE 22:33:46 10° N visible
17 Jul 3.4 00:03:37 10° SSW 00:08:46 37° W 00:13:58 10° NNW visible
17 Jul 5.4 20:28:52 10° ENE 20:30:34 11° NE 20:32:16 10° NNE visible
17 Jul 4.0 22:04:17 10° SE 22:09:25 39° ENE 22:14:35 10° N visible
17 Jul 3.1 23:44:10 10° S 23:49:35 49° W 23:55:03 10° NNW visible
18 Jul 4.4 21:45:45 10° ESE 21:50:32 30° ENE 21:55:21 10° N visible
18 Jul 2.8 23:24:52 10° S 23:30:27 66° WSW 23:36:04 10° NNW visible
19 Jul 4.8 21:27:21 10° ESE 21:31:43 24° NE 21:36:04 10° N visible
19 Jul 2.8 23:05:44 10° SSE 23:11:22 87° WSW 23:17:01 10° NNW visible
20 Jul 5.1 21:09:06 10° E 21:12:55 19° NE 21:16:43 10° N visible
20 Jul 3.0 22:46:44 10° SSE 22:52:20 72° ENE 22:57:55 10° NNW visible
21 Jul 5.2 20:51:04 10° ENE 20:54:10 15° NE 20:57:15 10° N visible
21 Jul 3.4 22:27:53 10° SE 22:33:20 54° ENE 22:38:47 10° N visible
22 Jul 3.6 00:08:47 10° SSW 00:13:50 34° W 00:18:55 10° NNW visible
22 Jul 5.3 20:33:21 10° ENE 20:35:27 12° NE 20:37:33 10° NNE visible
22 Jul 3.9 22:09:10 10° SE 22:14:24 42° ENE 22:19:37 10° N visible
22 Jul 3.2 23:49:16 10° S 23:54:38 45° W 00:00:01 10° NNW visible
23 Jul 4.3 21:50:35 10° ESE 21:55:29 32° ENE 22:00:24 10° N visible
23 Jul 2.9 23:29:56 10° S 23:35:29 61° WSW 23:41:02 10° NNW visible
24 Jul 4.6 21:32:08 10° ESE 21:36:38 26° NE 21:41:07 10° N visible
24 Jul 2.7 23:10:45 10° SSE 23:16:22 80° WSW 23:22:00 10° NNW visible
25 Jul 4.9 21:13:51 10° E 21:17:49 20° NE 21:21:47 10° N visible
25 Jul 2.9 22:51:42 10° SSE 22:57:19 78° ENE 23:02:54 10° NNW visible
